Weather History for Sitka, AK

Change the Weather History Date:

Tuesday, October 4, 2011

  Actual Average Record
Temperature  
Mean Temperature 49 °F -  
Max Temperature 52 °F 52 °F 59 °F (2001)
Min Temperature 46 °F 42 °F 33 °F (1954)
Degree Days  
Heating Degree Days 16    
Moisture  
Dew Point 42 °F    
Average Humidity 78    
Maximum Humidity 93    
Minimum Humidity 57    
Precipitation  
Precipitation 0.06 in - - ()
Sea Level Pressure  
Sea Level Pressure 29.36 in    
Wind  
Wind Speed 5 mph (SSE)    
Max Wind Speed 13 mph    
Max Gust Speed -    
Visibility 10 miles    
Events Rain    
Averages and records for this station are not official NWS values.
T = Trace of Precipitation, MM = Missing Value Source: NWS Daily Summary

Daily Weather History Graph

Daily Weather History Graph

Search for Another Location

Airport:

Trip Planner

Search our weather history database for the weather conditions in past years. The results will help you decide how hot, cold, wet, or windy it might be!

Date:

Astronomy

Oct. 04, 2011 Rise Set
Actual Time 7:11 AM AKDT 6:28 PM AKDT
Civil Twilight 6:33 AM AKDT 7:06 PM AKDT
Nautical Twilight 5:48 AM AKDT 7:50 PM AKDT
Astronomical Twilight 5:02 AM AKDT 8:36 PM AKDT
Moon 3:48 PM AKDT (10/4) 11:56 PM AKDT (10/4)
Length of Visible Light 12h 33m
Length of Day
11h 16m
First Quarter, 57% of the Moon is Illuminated
Oct 4
First Quarter
Oct 11
Full
Oct 19
Last Quarter
Oct 26
New
Nov 2
First Quarter

Hourly Weather History & Observations

Time (AKDT) Temp. Dew Point Humidity Pressure Visibility Wind Dir Wind Speed Gust Speed Precip Events Conditions
12:53 AM 46.9 °F 37.9 °F 71% 29.19 in 10.0 mi Calm Calm - N/A   Overcast
1:53 AM 48.9 °F 37.9 °F 66% 29.18 in 10.0 mi NNW 6.9 mph - N/A   Overcast
2:53 AM 48.9 °F 36.0 °F 61% 29.18 in 10.0 mi Variable 3.5 mph - N/A   Overcast
3:53 AM 50.0 °F 35.1 °F 57% 29.18 in 10.0 mi ESE 8.1 mph - 0.00 in Rain Light Rain
4:53 AM 48.9 °F 37.9 °F 66% 29.18 in 10.0 mi Calm Calm - 0.00 in   Overcast
5:53 AM 50.0 °F 39.9 °F 68% 29.19 in 10.0 mi SSW 3.5 mph - 0.00 in   Overcast
6:53 AM 50.0 °F 39.9 °F 68% 29.20 in 10.0 mi Variable 4.6 mph - N/A   Overcast
7:53 AM 51.1 °F 39.9 °F 66% 29.22 in 10.0 mi SE 9.2 mph - N/A   Overcast
8:53 AM 51.1 °F 41.0 °F 68% 29.24 in 10.0 mi ESE 4.6 mph - N/A   Overcast
9:53 AM 52.0 °F 39.9 °F 63% 29.27 in 10.0 mi ESE 12.7 mph - N/A   Overcast
10:53 AM 50.0 °F 44.1 °F 80% 29.31 in 10.0 mi SW 8.1 mph - 0.00 in Rain Light Rain
11:53 AM 50.0 °F 45.0 °F 83% 29.35 in 10.0 mi SSW 10.4 mph - 0.00 in Rain Light Rain
12:53 PM 50.0 °F 46.0 °F 86% 29.38 in 10.0 mi South 5.8 mph - 0.00 in Rain Light Rain
1:53 PM 48.2 °F 46.4 °F 93% 29.40 in 10.0 mi SSW 9.2 mph - N/A Rain Light Rain
2:53 PM 48.9 °F 46.9 °F 93% 29.43 in 5.0 mi SSW 8.1 mph - 0.03 in Rain Light Rain
3:20 PM 48.2 °F 46.4 °F 93% 29.44 in 5.0 mi South 5.8 mph - 0.01 in Rain Light Rain
3:53 PM 48.9 °F 46.9 °F 93% 29.45 in 8.0 mi Calm Calm - 0.02 in Rain Light Rain
4:53 PM 48.9 °F 44.1 °F 83% 29.47 in 10.0 mi SE 8.1 mph - 0.01 in Rain Light Rain
5:53 PM 50.0 °F 42.1 °F 74% 29.48 in 10.0 mi SE 8.1 mph - 0.00 in   Overcast
6:53 PM 48.0 °F 43.0 °F 83% 29.49 in 10.0 mi East 10.4 mph - N/A   Overcast
7:53 PM 48.0 °F 42.1 °F 80% 29.50 in 10.0 mi East 4.6 mph - 0.00 in   Overcast
8:53 PM 46.9 °F 42.1 °F 83% 29.52 in 10.0 mi East 3.5 mph - N/A   Overcast
9:53 PM 46.0 °F 43.0 °F 89% 29.54 in 10.0 mi Calm Calm - N/A   Overcast
10:53 PM 46.4 °F 42.8 °F 87% 29.54 in 10.0 mi Calm Calm - N/A   Overcast
11:53 PM 46.9 °F 44.1 °F 90% 29.55 in 10.0 mi NNW 4.6 mph - N/A   Overcast